When you browse on this site, cookies collect data to enhance your experience and personalize the content and advertising you see.
Visit our Privacy Policy to learn more. By continuing to use the site, you agree to this use of cookies and data.
  • In Deutschland
  • Länderverzeichnis
  • Für 7 Tage
  • Wassertemperatur
  • Wetterkarte
  • Widgets
  • user-avatar
    Anmelden

    Stündliche Wetter Lezhe

    Heute, 27 Mai, Mittwoch

    Zeit Temperatur Niederschläge Wind Luftdruck Luftfeuchtigkeit
    00:00 +10°C° 0 mm 4 m/S 740 mmHg 72%
    01:00 +10°C° 0 mm 4 m/S 741 mmHg 74%
    02:00 +8°C° 0 mm 4 m/S 741 mmHg 75%
    03:00 +8°C° 0 mm 4 m/S 741 mmHg 76%
    04:00 +8°C° 0 mm 4 m/S 741 mmHg 78%
    05:00 +11°C° 0 mm 4 m/S 741 mmHg 72%
    06:00 +12°C° 0 mm 4 m/S 741 mmHg 67%
    07:00 +14°C° 0 mm 4 m/S 741 mmHg 62%
    08:00 +15°C° 0 mm 4 m/S 741 mmHg 58%
    09:00 +16°C° 0 mm 5 m/S 741 mmHg 54%
    10:00 +19°C° 0 mm 5 m/S 742 mmHg 50%
    11:00 +19°C° 0 mm 4 m/S 741 mmHg 49%
    12:00 +20°C° 0 mm 4 m/S 741 mmHg 48%
    13:00 +20°C° 0 mm 4 m/S 741 mmHg 47%
    14:00 +20°C° 0.1 mm 4 m/S 741 mmHg 48%
    15:00 +20°C° 0.1 mm 4 m/S 740 mmHg 49%
    16:00 +20°C° 0.1 mm 4 m/S 740 mmHg 50%
    17:00 +18°C° 0 mm 3 m/S 740 mmHg 57%
    18:00 +17°C° 0 mm 3 m/S 740 mmHg 64%
    19:00 +15°C° 0 mm 2 m/S 740 mmHg 70%
    20:00 +13°C° 0 mm 3 m/S 741 mmHg 71%
    21:00 +12°C° 0 mm 3 m/S 741 mmHg 71%
    22:00 +12°C° 0 mm 3 m/S 741 mmHg 72%
    23:00 +12°C° 0 mm 3 m/S 741 mmHg 71%

    Morgen, 28 Mai, Donnerstag

    Zeit Temperatur Niederschläge Wind Luftdruck Luftfeuchtigkeit
    00:00 +11°C° 0 mm 3 m/S 741 mmHg 71%
    01:00 +11°C° 0 mm 3 m/S 741 mmHg 71%
    02:00 +11°C° 0 mm 3 m/S 741 mmHg 72%
    03:00 +11°C° 0 mm 3 m/S 741 mmHg 72%
    04:00 +12°C° 0 mm 2 m/S 740 mmHg 73%
    05:00 +13°C° 0 mm 2 m/S 740 mmHg 69%
    06:00 +15°C° 0 mm 2 m/S 740 mmHg 65%
    07:00 +17°C° 0 mm 2 m/S 740 mmHg 61%
    08:00 +18°C° 0 mm 2 m/S 740 mmHg 56%
    09:00 +20°C° 0 mm 2 m/S 740 mmHg 50%
    10:00 +21°C° 0 mm 2 m/S 740 mmHg 45%
    11:00 +21°C° 0.1 mm 3 m/S 740 mmHg 45%
    12:00 +22°C° 0.1 mm 3 m/S 739 mmHg 45%
    13:00 +22°C° 0.1 mm 4 m/S 739 mmHg 45%
    14:00 +21°C° 0.4 mm 4 m/S 738 mmHg 50%
    15:00 +21°C° 0.4 mm 4 m/S 738 mmHg 56%
    16:00 +20°C° 0.4 mm 3 m/S 738 mmHg 61%
    17:00 +18°C° 0.5 mm 3 m/S 738 mmHg 68%
    18:00 +17°C° 0.5 mm 2 m/S 738 mmHg 75%
    19:00 +15°C° 0.5 mm 2 m/S 738 mmHg 82%
    20:00 +15°C° 0.1 mm 2 m/S 738 mmHg 82%
    21:00 +14°C° 0.1 mm 2 m/S 738 mmHg 82%
    22:00 +13°C° 0.1 mm 2 m/S 739 mmHg 83%
    23:00 +13°C° 0 mm 2 m/S 738 mmHg 82%

    übermorgen, 29 Mai, Freitag

    Zeit Temperatur Niederschläge Wind Luftdruck Luftfeuchtigkeit
    00:00 +13°C° 0 mm 2 m/S 738 mmHg 82%
    01:00 +13°C° 0 mm 2 m/S 738 mmHg 81%
    02:00 +12°C° 0 mm 2 m/S 738 mmHg 81%
    03:00 +12°C° 0 mm 2 m/S 738 mmHg 81%
    04:00 +12°C° 0 mm 2 m/S 738 mmHg 81%
    05:00 +13°C° 0 mm 2 m/S 738 mmHg 76%
    06:00 +15°C° 0 mm 2 m/S 738 mmHg 72%
    07:00 +16°C° 0 mm 2 m/S 738 mmHg 67%
    08:00 +18°C° 0 mm 2 m/S 738 mmHg 61%
    09:00 +21°C° 0 mm 1 m/S 738 mmHg 54%
    10:00 +22°C° 0 mm 1 m/S 738 mmHg 48%
    11:00 +21°C° 0 mm 2 m/S 738 mmHg 48%
    12:00 +22°C° 0 mm 3 m/S 737 mmHg 47%
    13:00 +22°C° 0 mm 4 m/S 737 mmHg 47%
    14:00 +21°C° 0.1 mm 3 m/S 737 mmHg 49%
    15:00 +21°C° 0.1 mm 3 m/S 736 mmHg 52%
    16:00 +21°C° 0.1 mm 3 m/S 736 mmHg 54%
    17:00 +19°C° 0.1 mm 2 m/S 736 mmHg 62%
    18:00 +17°C° 0.1 mm 2 m/S 737 mmHg 70%
    19:00 +15°C° 0.1 mm 1 m/S 737 mmHg 78%
    20:00 +14°C° 0 mm 1 m/S 737 mmHg 78%
    21:00 +14°C° 0 mm 1 m/S 737 mmHg 79%
    22:00 +13°C° 0 mm 1 m/S 738 mmHg 79%
    23:00 +13°C° 0 mm 1 m/S 737 mmHg 80%

    30 Mai, Samstag

    Zeit Temperatur Niederschläge Wind Luftdruck Luftfeuchtigkeit
    00:00 +13°C° 0 mm 1 m/S 737 mmHg 80%
    01:00 +13°C° 0 mm 1 m/S 737 mmHg 80%
    02:00 +13°C° 0.1 mm 1 m/S 737 mmHg 81%
    03:00 +13°C° 0.1 mm 1 m/S 737 mmHg 82%
    04:00 +13°C° 0.1 mm 1 m/S 737 mmHg 83%
    05:00 +13°C° 0.3 mm 1 m/S 737 mmHg 82%
    06:00 +14°C° 0.3 mm 1 m/S 737 mmHg 82%
    07:00 +14°C° 0.3 mm 1 m/S 737 mmHg 82%
    08:00 +15°C° 0.8 mm 1 m/S 737 mmHg 80%
    09:00 +15°C° 0.8 mm 2 m/S 737 mmHg 78%
    10:00 +15°C° 0.8 mm 2 m/S 737 mmHg 76%
    11:00 +16°C° 0.4 mm 2 m/S 737 mmHg 73%
    12:00 +17°C° 0.4 mm 2 m/S 737 mmHg 70%
    13:00 +18°C° 0.4 mm 2 m/S 737 mmHg 66%
    14:00 +18°C° 0.2 mm 2 m/S 737 mmHg 65%
    15:00 +19°C° 0.2 mm 2 m/S 737 mmHg 64%
    16:00 +19°C° 0.2 mm 2 m/S 736 mmHg 63%
    17:00 +18°C° 0 mm 1 m/S 736 mmHg 69%
    18:00 +16°C° 0 mm 1 m/S 736 mmHg 75%
    19:00 +13°C° 0 mm 0 m/S 736 mmHg 81%
    20:00 +14°C° 0 mm 1 m/S 737 mmHg 81%
    21:00 +13°C° 0 mm 1 m/S 737 mmHg 82%
    22:00 +13°C° 0 mm 1 m/S 737 mmHg 82%
    23:00 +13°C° 0 mm 1 m/S 737 mmHg 81%

    31 Mai, Sonntag

    Zeit Temperatur Niederschläge Wind Luftdruck Luftfeuchtigkeit
    00:00 +13°C° 0 mm 1 m/S 737 mmHg 80%
    01:00 +13°C° 0 mm 1 m/S 736 mmHg 79%
    02:00 +13°C° 0 mm 1 m/S 736 mmHg 79%
    03:00 +13°C° 0 mm 1 m/S 736 mmHg 80%
    04:00 +12°C° 0 mm 1 m/S 736 mmHg 80%
    05:00 +13°C° 0 mm 1 m/S 736 mmHg 78%
    06:00 +14°C° 0 mm 1 m/S 736 mmHg 75%
    07:00 +16°C° 0 mm 1 m/S 736 mmHg 73%
    08:00 +16°C° 0.1 mm 1 m/S 736 mmHg 72%
    09:00 +17°C° 0.1 mm 2 m/S 736 mmHg 71%
    10:00 +18°C° 0.1 mm 2 m/S 736 mmHg 70%
    11:00 +19°C° 0.3 mm 2 m/S 736 mmHg 66%
    12:00 +19°C° 0.3 mm 2 m/S 736 mmHg 62%
    13:00 +20°C° 0.3 mm 2 m/S 736 mmHg 58%
    14:00 +20°C° 0.3 mm 2 m/S 735 mmHg 61%
    15:00 +20°C° 0.3 mm 2 m/S 735 mmHg 63%
    16:00 +19°C° 0.3 mm 2 m/S 735 mmHg 66%
    17:00 +18°C° 0.1 mm 2 m/S 735 mmHg 72%
    18:00 +16°C° 0.1 mm 1 m/S 735 mmHg 79%
    19:00 +15°C° 0.1 mm 1 m/S 735 mmHg 85%
    20:00 +14°C° 0 mm 1 m/S 735 mmHg 86%
    21:00 +14°C° 0 mm 1 m/S 736 mmHg 87%
    22:00 +13°C° 0 mm 1 m/S 736 mmHg 88%
    23:00 +13°C° 0 mm 1 m/S 736 mmHg 88%

    1 Juni, Montag

    Zeit Temperatur Niederschläge Wind Luftdruck Luftfeuchtigkeit
    00:00 +13°C° 0 mm 1 m/S 736 mmHg 88%
    01:00 +12°C° 0 mm 1 m/S 736 mmHg 88%
    02:00 +12°C° 0 mm 1 m/S 736 mmHg 89%
    03:00 +12°C° 0 mm 1 m/S 735 mmHg 89%
    04:00 +12°C° 0 mm 1 m/S 735 mmHg 89%
    05:00 +13°C° 0 mm 1 m/S 735 mmHg 83%
    06:00 +15°C° 0 mm 1 m/S 735 mmHg 78%
    07:00 +18°C° 0 mm 1 m/S 736 mmHg 72%
    08:00 +19°C° 0 mm 1 m/S 736 mmHg 67%
    09:00 +21°C° 0 mm 1 m/S 736 mmHg 62%
    10:00 +22°C° 0 mm 1 m/S 736 mmHg 57%
    11:00 +21°C° 0.4 mm 2 m/S 735 mmHg 59%
    12:00 +21°C° 0.4 mm 2 m/S 735 mmHg 61%
    13:00 +21°C° 0.4 mm 3 m/S 735 mmHg 62%
    14:00 +21°C° 0.3 mm 3 m/S 734 mmHg 63%
    15:00 +21°C° 0.3 mm 2 m/S 734 mmHg 63%
    16:00 +20°C° 0.3 mm 2 m/S 734 mmHg 64%
    17:00 +19°C° 0.2 mm 2 m/S 734 mmHg 71%
    18:00 +18°C° 0.2 mm 1 m/S 734 mmHg 77%
    19:00 +16°C° 0.2 mm 1 m/S 734 mmHg 84%
    20:00 +15°C° 0 mm 1 m/S 735 mmHg 85%
    21:00 +15°C° 0 mm 1 m/S 735 mmHg 85%
    22:00 +14°C° 0 mm 1 m/S 735 mmHg 86%
    23:00 +14°C° 0 mm 1 m/S 735 mmHg 85%
    Mehr zeigen